Torna al catalogo

ARIANE 2 DEB

AttivoGTO
NORAD 26717·DEBRIS·🇫🇷 France

Lanciato Jan 27, 1989 da Guiana Space Centre

Loading…

TLE

In scadenzaSource: Space-Track

Epoca: Sep 14, 2026, 10:33 UTC

1 26717U 89006C   26257.44003122 -.00000083  00000-0  82379-4 0  9999
2 26717   8.0196 112.1793 7159547   2.6105 199.6468  2.26368289212492

Traccia ARIANE 2 DEB in tempo reale con AllMySat

Download on the App Store